#timestamp,LO_Frequency,Hit 
1499432415.4,286046842.2,N
1499432435.2,286046841.5,N
1499432455.0,286046841.9,N
1499432455.9,286046841.9,N
1499432475.8,286046843.2,N
1499432495.6,286046843.2,N
1499432515.4,286046843.8,N
1499432535.3,286046841.9,N
1499432555.1,286046842.7,N
1499432556.0,286046842.7,N
1499432575.8,286046839.8,N
1499432595.7,286046840.3,N
1499432615.5,286046840.8,N
1499432635.3,286046841.2,N
1499432655.2,286046838.1,N
1499432675.9,286046839.0,N
1499432695.7,286046839.4,N
1499432715.6,286046839.1,N
1499432735.4,286046838.9,N
1499432755.2,286046838.1,N
1499432775.0,286046840.3,N
1499432775.9,286046840.3,N
1499432795.8,286046839.3,N
1499432815.6,286046839.4,N
1499432835.4,286046836.6,N
1499432855.3,286046839.2,N
1499432875.1,286046839.4,N
1499432895.8,286046839.2,N
1499432915.7,286046836.8,N
1499432935.5,286046839.1,N
1499432955.3,286046837.0,N
1499432975.2,286046836.5,N
1499432995.9,286046839.4,N
1499433015.7,286046836.6,N
1499433035.6,286046838.0,N
1499433055.4,286046837.8,N
1499433075.2,286046837.9,N
1499433095.0,286046837.5,N
1499433095.9,286046837.5,N
1499433115.8,286046837.8,N
1499433135.6,286046837.4,N
1499433155.4,286046835.3,N
1499433175.3,286046835.4,N
1499433195.1,286046835.8,N
1499433215.8,286046838.0,N
1499433235.7,286046836.0,N
1499433255.5,286046831.7,N
1499433275.3,286046834.7,N
1499433295.2,286046831.7,N
1499433315.9,286046834.7,N
1499433335.7,286046834.7,N
1499433355.6,286046834.3,N
1499433375.4,286046834.4,N
1499433395.2,286046831.8,N
1499433415.0,286046832.1,N
1499433415.9,286046832.1,N
1499433435.8,286046831.7,N
1499433455.6,286046831.7,N
1499433475.4,286046834.8,N
1499433495.3,286046833.0,N
1499433515.1,286046830.1,N
1499433516.0,286046830.1,N
1499433535.8,286046832.4,N
1499433555.7,286046830.2,N
1499433575.5,286046830.2,N
1499433595.3,286046829.0,N
1499433615.2,286046828.7,N
1499433635.9,286046828.7,N
1499433655.7,286046828.5,N
1499433675.5,286046830.3,N
1499433695.4,286046831.0,N
1499433715.2,286046832.9,N
1499433735.0,286046830.5,N
1499433735.9,286046830.5,N
1499433755.8,286046830.4,N
1499433775.6,286046830.7,N
1499433795.4,286046829.3,N
1499433815.3,286046829.5,N
1499433835.1,286046827.8,N
1499433855.8,286046828.3,N
1499433875.7,286046828.3,N
1499433895.5,286046825.4,N
1499433915.3,286046825.3,N
1499433935.2,286046825.6,N
1499433955.9,286046826.3,N
1499433975.7,286046826.0,N
1499433995.6,286046826.2,N
1499434015.4,286046823.7,N
1499434035.2,286046826.2,N
1499434055.0,286046825.9,N
1499434056.0,286046825.9,N
1499434075.8,286046826.8,N
1499434095.6,286046824.9,N
1499434115.4,286046825.1,N
1499434135.3,286046824.7,N
1499434155.1,286046824.9,N
1499434175.8,286046824.7,N
1499434195.7,286046824.7,N
1499434215.5,286046822.2,N
1499434235.3,286046823.0,N
1499434255.2,286046820.5,Y
1499434275.0,286046903.8,N
1499434275.9,286046903.8,N
1499434295.7,286046904.1,N
1499434315.6,286046904.0,N
1499434335.4,286046904.9,N
1499434355.2,286046904.6,N
1499434375.1,286046904.7,N
1499434376.0,286046904.7,N
1499434395.8,286046905.0,N
1499434415.6,286046904.0,N
1499434435.5,286046904.4,N
1499434455.3,286046904.4,N
1499434475.1,286046905.1,N
1499434495.9,286046902.7,N
1499434515.7,286046903.2,N
1499434535.5,286046903.0,N
1499434555.4,286046903.2,N
1499434575.2,286046900.6,N
1499434595.0,286046903.4,N
1499434595.9,286046903.4,N
1499434615.8,286046903.1,N
1499434635.6,286046903.6,N
1499434655.4,286046901.3,N
1499434675.2,286046900.9,N
1499434695.1,286046901.1,N
1499434696.0,286046901.1,N
1499434715.8,286046901.1,N
1499434735.6,286046899.4,N
1499434755.5,286046901.9,N
1499434775.3,286046899.6,N
1499434795.1,286046899.7,N
1499434815.9,286046897.3,N
1499434835.7,286046897.8,N
1499434855.5,286046898.6,N
1499434875.4,286046898.4,N
1499434895.2,286046896.3,N
1499434915.0,286046895.9,N
1499434915.9,286046895.9,N
1499434935.8,286046898.3,N
1499434955.6,286046895.9,N
1499434975.4,286046896.3,N
1499434995.3,286046896.9,N
1499435015.1,286046894.9,N
1499435016.0,286046894.9,N
1499435035.8,286046894.5,N
1499435055.7,286046896.5,N
1499435075.5,286046894.2,N
1499435095.3,286046894.1,N
1499435115.1,286046894.8,N
1499435135.9,286046895.2,N
1499435155.7,286046894.9,N
1499435175.5,286046895.5,N
1499435195.4,286046892.6,N
1499435215.2,286046893.5,N
1499435235.0,286046891.0,N
1499435235.9,286046891.0,N
1499435255.8,286046892.4,N
1499435275.6,286046893.9,N
1499435295.4,286046894.0,N
1499435315.3,286046893.6,N
1499435335.1,286046892.7,N
1499435336.0,286046892.7,N
1499435355.8,286046895.6,N
1499435375.7,286046892.7,N
1499435395.5,286046893.4,N
1499435415.3,286046891.0,N
1499435435.2,286046891.7,N
1499435455.9,286046892.2,N
1499435475.7,286046893.5,N
1499435495.5,286046891.3,N
1499435515.4,286046889.7,N
1499435535.2,286046889.5,N
1499435555.0,286046889.9,N
1499435555.9,286046889.9,N
1499435575.8,286046889.8,N
1499435595.6,286046887.8,N
1499435615.4,286046888.1,N
1499435635.3,286046887.9,N
1499435655.1,286046888.0,N
1499435656.0,286046888.0,N
1499435675.8,286046888.4,N
1499435695.7,286046888.4,N
1499435715.5,286046889.0,N
1499435735.3,286046889.1,N
1499435755.2,286046887.3,N
1499435775.9,286046886.9,N
1499435795.7,286046887.3,N
1499435815.6,286046885.4,N
1499435835.4,286046884.9,N
1499435855.2,286046887.6,N
1499435875.0,286046884.9,N
1499435875.9,286046884.9,N
1499435895.8,286046884.8,N
1499435915.6,286046885.7,N
1499435935.4,286046885.2,N
1499435955.3,286046886.0,N
1499435975.1,286046883.4,N
1499435995.8,286046885.9,N
